Flag for U.S.A. Weather past 2 weeks in San Luis Obispo, California, U.S.A.

Now
70 °F

Clear.


Feels Like: 77 °F
Forecast: 60 / 82 °F
Wind: 16 mph from Northwest

Location: Paso Robles Municipal Airport

Current Time: Aug 29, 2015 at 11:11:26 PM

Latest Report: Aug 29, 2015 at 9:53 PM


Visibility: 10 mi

Pressure: 29.93 "Hg

Humidity: 55%

Dew point: 53 °F

Location of San Luis ObispoLocation

Historic Weather in San Luis Obispo — Graph

°F

San Luis Obispo temperature yesterday

Maximum temperature yesterday: 104 °F (at 2:53 PM)
Minimum temperature yesterday: 60 °F (at 6:53 AM)
Average temperature yesterday: 81 °F

Past Weeks' High & Low Weather Summary

 TemperatureHumidityPressure
High106 °F (Aug 16, 2:53 PM)93% (Aug 18, 4:53 AM)30.04 "Hg (Aug 18, 4:53 AM)
Low55 °F (Aug 18, 5:53 AM)9% (Aug 16, 2:53 PM)29.78 "Hg (Aug 16, 3:53 PM)
Average75 °F51%29.90 "Hg
* Reported Aug 14 9:53 PM — Aug 29 9:53 PM, San Luis Obispo, Weather by CustomWeather, © 2015

Note: Actual official high and low records may vary slightly from our data, if they occured in-between our weather recording intervals... More about our weather records

Advertising

San Luis Obispo weather history for previous 24 hours

 ConditionsComfort  
Time TempWeatherWind HumidityBarometerVisibility
9:53 PM
Sat, Aug 29
70 °FClear.16 mph55%29.93 "Hg10 mi
8:53 PM73 °FClear.14 mph64%29.92 "Hg10 mi
7:53 PM79 °FSunny.16 mph54%29.89 "Hg10 mi
6:53 PM87 °FSunny.15 mph39%29.87 "Hg10 mi
5:53 PM92 °FSunny.15 mph29%29.86 "Hg10 mi
4:53 PM93 °FSunny.14 mph27%29.86 "Hg10 mi
3:53 PM95 °FSunny.14 mph25%29.88 "Hg10 mi
2:53 PM94 °FSunny.6 mph22%29.89 "Hg10 mi
1:53 PM92 °FSunny.6 mph23%29.91 "Hg10 mi
12:53 PM90 °FSunny.9 mph26%29.93 "Hg10 mi
11:53 AM85 °FSunny.N/A35%29.95 "Hg10 mi
10:53 AM80 °FSunny.7 mph47%29.97 "Hg10 mi
9:53 AM73 °FSunny.No wind64%29.97 "Hg10 mi
8:53 AM69 °FSunny.8 mph73%29.97 "Hg10 mi
7:53 AM65 °FSunny.8 mph85%29.97 "Hg10 mi
6:53 AM62 °FClear.No wind80%29.95 "Hg10 mi
5:53 AM61 °FClear.No wind78%29.93 "Hg10 mi
4:53 AM63 °FClear.No wind75%29.92 "Hg10 mi
3:53 AM65 °FClear.No wind73%29.91 "Hg10 mi
2:53 AM67 °FClear.No wind66%29.91 "Hg10 mi
1:53 AM69 °FClear.6 mph61%29.90 "Hg10 mi
11:53 PM
Fri, Aug 28
73 °FClear.10 mph55%29.90 "Hg10 mi
Weather by CustomWeather, © 2015

See weather overviewHow to use our weather pages